Regional Weather Roundup
Issued by NWS

Home | Current Version | Previous Version | Graphics & Text | Print | Product List | Glossary On
Versions: 1 2 3 4 5 6 7 8 9 10 11 12 13 14 15 16 17 18 19 20 21 22 23 24 25 26 27 28 29 30 31 32 33 34 35 36 37 38 39 40 41 42 43 44 45 46 47 48 49 50
000
ASUS43 KDTX 300310
RWRMI
MICHIGAN HOURLY REGIONAL WEATHER ROUNDUP
NATIONAL WEATHER SERVICE DETROIT/PONTIAC MI
1100 PM EDT WED JUL 29 2015

NOTE: "FAIR" INDICATES FEW OR NO CLOUDS BELOW 12,000 FEET WITH NO
SIGNIFICANT WEATHER AND/OR OBSTRUCTION TO VISIBILITY.

MIZ047>049-052>055-059>063-066>070-074>076-081>083-300400-
SOUTHEAST LOWER MICHIGAN

CITY           SKY/WX    TMP DP  RH WIND       PRES   REMARKS
ADRIAN         CLEAR     68  61  78 W3        29.97R
ALMA           CLEAR     68  55  63 SW5       29.92S
ANN ARBOR      CLEAR     67  60  78 W6        29.94R
BAD AXE        CLEAR     69  59  69 W6        29.89R
CARO           CLEAR     70  57  63 W7        29.90R
DETROIT CITY   CLEAR     77  56  48 W7        29.92R
DETROIT        PTCLDY    74  58  57 W9        29.94R
FLINT          CLEAR     73  55  53 W9        29.93R
GROSSE ILE     CLEAR     77  61  57 W10G16    29.91R
HILLSDALE      CLEAR     69  58  67 W3        29.99R
HOWELL         CLEAR     68  55  64 W6        29.95S

CITY           SKY/WX    TMP DP  RH WIND       PRES   REMARKS
JACKSON        CLEAR     67  58  72 SW6       29.97R
LAMBERTVILLE   CLEAR     73  62  66 W3        29.96R
LANSING        CLEAR     71  57  61 W8        29.95R
LAPEER         FAIR      71  57  62 W3        29.92R
MASON          CLEAR     68  56  66 CALM      29.96R
MONROE         CLEAR     73  62  68 W7        29.93R
MT. CLEMENS    CLEAR     76  57  51 W9        29.89R
PONTIAC        PTCLDY    70  58  65 W7        29.92R
PORT HOPE        N/A     76  57  51 W8        29.85R
PORT HURON     CLEAR     70  64  83 W3        29.90R
TRI CITIES     CLEAR     71  57  61 SW7       29.90R
MIDLAND        FAIR      71  54  55 SW5       29.89R
TROY           CLEAR     72  64  75 MISG      29.94R
SAGINAW HB     CLEAR     70  59  68 SW6       29.89S
$$
MIZ043>046-050>051-056>058-064>065-071>073-077>080-300400-
SOUTHWEST LOWER MICHIGAN

CITY           SKY/WX    TMP DP  RH WIND       PRES   REMARKS
BATTLE CREEK   CLEAR     70  57  63 W8        29.98R
BENTON HARBOR  CLEAR     75  60  59 W13       29.99R
BIG RAPIDS     CLEAR     71  53  52 W8        29.92R
COLDWATER      CLEAR     66  58  77 SW3       29.99R
FREMONT        FAIR      69  55  60 W3        29.93R
HOLLAND        CLEAR     75  59  57 W9        29.97R
GRAND RAPIDS   CLEAR     71  57  61 W10       29.95R
IONIA          FAIR      69  56  65 SW8       29.94R
KALAMAZOO      CLEAR     72  56  57 W7        29.98R
LUDINGTON      PTCLDY    76  63  63 W8        29.92R
MARSHALL       CLEAR     68  57  68 CALM      29.97S
MOUNT PLEASANT CLEAR     73  55  51 SW5       29.90R
MUSKEGON       PTCLDY    76  54  46 W10G18    29.94R
SOUTH HAVEN    CLEAR     75  59  57 W9        29.98R
$$
MIZ016>042-300400-
NORTHERN LOWER MICHIGAN

CITY           SKY/WX    TMP DP  RH WIND       PRES   REMARKS
ALPENA         CLEAR     73  52  47 SW7       29.82S
BEAVER ISLAND  CLOUDY    73  56  54 W5        29.83S
BELLAIRE       CLOUDY    76  57  51 W3        29.86R
CADILLAC       CLEAR     68  56  63 SW6       29.91S
CHARLEVOIX     CLOUDY    73  61  67 W7        29.88R
FRANKFORT      CLOUDY    76  60  58 W8        29.88S
GAYLORD        PTCLDY    74  53  48 W8G16     29.88R
GRAYLING       PTCLDY    71  52  51 W3        29.89R
HARBOR SPRINGS CLOUDY    74  58  57 W8        29.84R
HOUGHTON LAKE  CLEAR     74  56  53 W9        29.89R
MANISTEE       CLOUDY    75  55  50 W14       29.90R
OSCODA         CLEAR     69  51  53 SW6       29.84S
PELLSTON       CLOUDY    74  59  59 NW10      29.83R
ROGERS CITY    CLEAR     73  54  51 SW6       29.82R
TRAVERSE CITY  CLOUDY    77  57  50 W7        29.86R
$$
MIZ007>008-015-300400-
EASTERN UPPER MICHIGAN

CITY           SKY/WX    TMP DP  RH WIND       PRES   REMARKS
KINROSS        CLOUDY    66  54  63 CALM      29.81S
MACKINAC ISLAN CLOUDY    68  57  69 NE5       29.82R
MUNISING         N/A     75  55  49 VRB3      29.80R
$$
MIZ004>006-011>014-085-300400-
CENTRAL UPPER MICHIGAN

CITY           SKY/WX    TMP DP  RH WIND       PRES   REMARKS
MANISTIQUE     CLOUDY    72  55  56 SW5       29.81S
ESCANABA       CLOUDY    73  55  53 SW7       29.82S
MENOMINEE      PTCLDY    72  54  53 SW7       29.86R
SAWYER-GWINN   CLOUDY    72  55  55 SW8       29.82F
$$
MIZ001>003-009>011-084-300400-
WESTERN UPPER MICHIGAN

CITY           SKY/WX    TMP DP  RH WIND       PRES   REMARKS
IRON MOUNTAIN  CLOUDY    72  54  53 S6        29.84R
HOUGHTON       CLOUDY    71  55  56 W12G21    29.74F
COPPER HARBOR    N/A     72  55  55 VRB7G22   29.71S
IRONWOOD       PTCLDY    70  55  60 W12       29.81R
$$

ABBREVIATIONS USED IN REMARKS
   TC - TEMPERATURE IN CELSIUS
  WCI - WIND CHILL INDEX
   HX - HEAT INDEX
  VSB - VISIBILITY



USA.gov is the U.S. government's official web portal to all federal, state and local government web resources and services.